Location: Casteau
(50.5142°N, 4.0161°E)
Time: 15:06:00
(UTC+00:00)

Cosmos 909 Rocket - Pass Details

Date: 18 September 2020
Orbit: 991 x 2088 km, 65.9° (Epoch: 23 October)

Event Time Altitude Azimuth Distance (km) Brightness Sun altitude
Rises 21:38:28 0° 320° (NW) 3,962 8.3 -32.2°
Reaches altitude 10° 21:41:14 10° 320° (NW) 2,908 7.3 -32.4°
Enters shadow 21:46:59 68° 303° (WNW) 1,080 4.2 -32.9°
